KQ4PPF Weather Reports


time (UTC)temp
C
wind
direction
speed
KPH
gust
KPH
rain 1hr
cm
rain 24hr
cm
rain mn
cm
humidity
%
barometer
mb
20260906122047 23 275 0.0 0.0 0.00 0.00 0.00 97 1013.0
20260906121542 23 272 0.0 0.0 0.00 0.00 0.00 97 1013.1
20260906121039 22 273 0.0 0.0 0.00 0.00 0.00 97 1013.0
20260906120534 22 273 0.0 0.0 0.00 0.00 0.00 97 1012.9
20260906120031 22 275 0.0 0.0 0.00 0.00 0.00 97 1012.8
20260906115530 22 275 0.0 0.0 0.00 0.00 0.00 97 1012.5
20260906115025 22 275 0.0 0.0 0.00 0.00 0.00 97 1012.6
20260906114520 22 274 0.0 0.0 0.00 0.00 0.00 97 1012.6
20260906114016 22 274 0.0 0.0 0.00 0.00 0.00 97 1012.5
20260906113514 22 274 0.0 0.0 0.00 0.00 0.00 97 1012.4
20260906113010 22 274 0.0 0.0 0.00 0.00 0.00 97 1012.4
20260906112505 22 275 0.0 0.0 0.00 0.00 0.00 97 1012.3
20260906112001 22 275 0.0 0.0 0.00 0.00 0.00 97 1011.9
20260906111500 22 274 0.0 0.0 0.00 0.00 0.00 96 1011.6
20260906110955 22 273 0.0 0.0 0.00 0.00 0.00 96 1012.2
20260906110450 22 273 0.0 0.0 0.00 0.00 0.00 96 1011.8
20260906105949 22 274 0.0 0.0 0.00 0.00 0.00 96 1011.8
20260906105445 22 274 0.0 0.0 0.00 0.00 0.00 96 1011.8
20260906104941 22 275 0.0 0.0 0.00 0.00 0.00 96 1011.9
20260906104439 22 273 0.0 0.0 0.00 0.00 0.00 96 1011.9
20260906103939 22 275 0.0 0.0 0.00 0.00 0.00 96 1011.8
20260906103437 22 275 0.0 0.0 0.00 0.00 0.00 96 1011.8
20260906102932 22 275 0.0 0.0 0.00 0.00 0.00 96 1011.8
20260906102427 23 275 0.0 0.0 0.00 0.00 0.00 96 1011.9
20260906101922 23 273 0.0 0.0 0.00 0.00 0.00 95 1011.9
20260906101417 23 275 0.0 0.0 0.00 0.00 0.00 95 1011.8
20260906100913 23 275 0.0 0.0 0.00 0.00 0.00 95 1011.9
20260906100412 23 274 0.0 0.0 0.00 0.00 0.00 95 1011.9
20260906095907 23 274 0.0 0.0 0.00 0.00 0.00 95 1011.7
20260906095403 23 275 0.0 0.0 0.00 0.00 0.00 95 1012.2
20260906094901 23 274 0.0 0.0 0.00 0.00 0.00 96 1012.2
20260906094356 23 274 0.0 0.0 0.00 0.00 0.00 96 1012.0
20260906093847 23 275 0.0 0.0 0.00 0.00 0.00 96 1012.0
20260906093343 23 272 0.0 0.0 0.00 0.00 0.00 96 1011.6
20260906092837 23 273 0.0 0.0 0.00 0.00 0.00 96 1011.9
20260906092337 23 272 0.0 0.0 0.00 0.00 0.00 96 1011.9
20260906091833 23 275 0.0 0.0 0.00 0.00 0.00 96 1011.9
20260906091329 23 275 0.0 0.0 0.00 0.00 0.00 97 1012.0
20260906090820 23 275 0.0 0.0 0.00 0.00 0.00 97 1012.0
20260906090319 23 274 0.0 0.0 0.00 0.00 0.00 97 1012.6
20260906085818 23 275 0.0 0.0 0.00 0.00 0.00 97 1012.4
20260906085312 23 272 0.0 0.0 0.00 0.00 0.00 97 1012.4
20260906084807 23 273 0.0 0.0 0.00 0.00 0.00 97 1012.3
20260906084307 23 273 0.0 0.0 0.00 0.00 0.00 97 1012.7
20260906083802 23 272 0.0 0.0 0.00 0.00 0.00 97 1012.7
20260906083257 23 273 0.0 0.0 0.00 0.00 0.00 97 1012.6
20260906082751 23 272 0.0 0.0 0.00 0.00 0.00 97 1012.7
20260906082246 23 273 0.0 0.0 0.00 0.00 0.00 96 1012.4
20260906081743 23 273 0.0 0.0 0.00 0.00 0.00 96 1012.5
20260906081237 23 274 0.0 0.0 0.00 0.00 0.00 95 1012.7
20260906080733 23 274 0.0 0.0 0.00 0.00 0.00 95 1012.6
20260906080230 23 274 0.0 0.0 0.00 0.00 0.00 95 1012.4
20260906075723 23 274 0.0 0.0 0.00 0.00 0.00 95 1012.2
20260906075218 23 273 0.0 0.0 0.00 0.00 0.00 95 1012.0
20260906074714 23 273 0.0 0.0 0.00 0.00 0.00 95 1012.2
20260906074213 23 273 0.0 0.0 0.00 0.00 0.00 95 1012.2
20260906073708 23 274 0.0 0.0 0.00 0.00 0.00 95 1012.0
20260906073203 23 274 0.0 0.0 0.00 0.00 0.00 95 1011.8
20260906072658 23 274 0.0 0.0 0.00 0.00 0.00 94 1011.7
20260906072154 23 272 0.0 0.0 0.00 0.00 0.00 94 1011.6
20260906071650 23 266 0.0 0.0 0.00 0.00 0.00 93 1011.8
20260906071149 23 270 0.0 0.0 0.00 0.00 0.00 93 1012.0
20260906070646 23 284 0.0 0.0 0.00 0.00 0.00 94 1012.3
20260906070142 23 276 0.0 0.0 0.00 0.00 0.00 95 1011.7
20260906065641 23 277 0.0 0.0 0.00 0.00 0.00 95 1011.7
20260906065137 23 275 0.0 0.0 0.00 0.00 0.00 96 1011.8
20260906064632 23 272 0.0 0.0 0.00 0.00 0.00 96 1012.2
20260906064127 23 270 0.0 0.0 0.00 0.00 0.00 95 1012.4
20260906063622 23 274 0.0 0.0 0.00 0.00 0.00 95 1012.4
20260906063118 23 273 0.0 0.0 0.00 0.00 0.00 95 1012.4
20260906062614 23 273 0.0 0.0 0.00 0.00 0.00 95 1012.3
20260906062112 23 274 0.0 0.0 0.00 0.00 0.00 95 1012.4
20260906061609 23 272 0.0 0.0 0.00 0.00 0.00 95 1012.4
20260906061108 23 275 0.0 0.0 0.00 0.00 0.00 96 1012.4
20260906060605 23 275 0.0 0.0 0.00 0.00 0.00 96 1012.6
20260906055557 23 274 0.0 0.0 0.00 0.00 0.00 96 1012.4
20260906055052 22 274 0.0 0.0 0.00 0.00 0.00 96 1012.3
20260906054547 22 273 0.0 0.0 0.00 0.00 0.00 96 1012.0
20260906054042 23 270 0.0 0.0 0.00 0.00 0.00 96 1012.0
20260906053539 23 275 0.0 0.0 0.00 0.00 0.00 96 1012.2
20260906053034 23 273 0.0 0.0 0.00 0.00 0.00 96 1012.5
20260906052529 23 273 0.0 0.0 0.00 0.00 0.00 96 1012.2
20260906052026 23 274 0.0 0.0 0.00 0.00 0.00 96 1011.8
20260906051522 23 274 0.0 0.0 0.00 0.00 0.00 96 1012.0
20260906051017 23 275 0.0 0.0 0.00 0.00 0.00 96 1012.0
20260906050512 23 274 0.0 0.0 0.00 0.00 0.00 96 1012.3
20260906050007 23 271 0.0 0.0 0.00 0.00 0.00 96 1012.2
20260906045505 23 274 0.0 0.0 0.00 0.00 0.00 95 1012.3
20260906045001 23 272 0.0 0.0 0.00 0.00 0.00 95 1012.7
20260906044455 23 272 0.0 0.0 0.00 0.00 0.00 95 1012.8
20260906043952 23 274 0.0 0.0 0.00 0.00 0.00 95 1012.4
20260906043447 23 274 0.0 0.0 0.00 0.00 0.00 94 1012.8
20260906042943 23 274 0.0 0.0 0.00 0.00 0.00 94 1012.5
20260906042442 23 274 0.0 0.0 0.00 0.00 0.00 94 1012.6
20260906041936 23 272 0.0 0.0 0.00 0.00 0.00 94 1012.8
20260906041432 23 272 0.0 0.0 0.00 0.00 0.00 94 1012.8
20260906040927 23 272 0.0 0.0 0.00 0.00 0.00 94 1012.7
20260906040422 23 274 0.0 0.0 0.00 0.00 0.00 94 1012.6
20260906035917 23 274 0.0 0.0 0.00 0.00 0.00 94 1012.5
20260906035412 23 274 0.0 0.0 0.00 0.00 0.00 94 1012.4
20260906034908 23 274 0.0 0.0 0.00 0.00 0.00 94 1012.7
20260906034402 23 272 0.0 0.0 0.00 0.00 0.00 94 1012.6
20260906033858 23 272 0.0 0.0 0.00 0.00 0.00 94 1013.0
20260906033358 23 274 0.0 0.0 0.00 0.00 0.00 94 1012.9
20260906032854 23 273 0.0 0.0 0.00 0.00 0.00 93 1012.8
20260906032350 23 273 0.0 0.0 0.00 0.00 0.00 93 1012.8
20260906031844 23 271 0.0 0.0 0.00 0.00 0.00 93 1013.1
20260906031339 24 274 0.0 0.0 0.00 0.00 0.00 92 1012.9
20260906030839 24 274 0.0 0.0 0.00 0.00 0.00 92 1012.5
20260906030335 24 274 0.0 0.0 0.00 0.00 0.00 92 1013.0
20260906025829 24 274 0.0 0.0 0.00 0.00 0.00 92 1013.0
20260906025323 24 274 0.0 0.0 0.00 0.00 0.00 92 1012.7
20260906024822 24 274 0.0 0.0 0.00 0.00 0.00 92 1012.7
20260906024321 24 274 0.0 0.0 0.00 0.00 0.00 92 1012.3
20260906023817 24 269 0.0 0.0 0.00 0.00 0.00 92 1012.2
20260906023313 24 274 0.0 0.0 0.00 0.00 0.00 91 1012.4
20260906022808 24 275 0.0 0.0 0.00 0.00 0.00 91 1012.2
20260906022306 24 272 0.0 0.0 0.00 0.00 0.00 91 1012.0
20260906021759 24 272 0.0 0.0 0.00 0.00 0.00 91 1012.2
20260906021258 24 272 0.0 0.0 0.00 0.00 0.00 90 1012.2
20260906020752 25 272 0.0 0.0 0.00 0.00 0.00 90 1012.4
20260906020246 25 272 0.0 0.0 0.00 0.00 0.00 90 1012.0
20260906015741 25 272 0.0 0.0 0.00 0.00 0.00 90 1012.0
20260906015239 25 272 0.0 0.0 0.00 0.00 0.00 89 1012.2
20260906014734 25 271 0.0 0.0 0.00 0.00 0.00 89 1011.8
20260906014230 25 273 0.0 0.0 0.00 0.00 0.00 87 1011.8
20260906013726 25 274 0.0 0.0 0.00 0.00 0.00 87 1011.7
20260906013226 25 274 0.0 0.0 0.00 0.00 0.00 87 1011.7
20260906012721 25 274 0.0 0.0 0.00 0.00 0.00 87 1011.6
20260906012216 25 274 0.0 0.0 0.00 0.00 0.00 86 1011.5
20260906011711 25 274 0.0 0.0 0.00 0.00 0.00 86 1011.6
20260906011206 25 274 0.0 0.0 0.00 0.00 0.00 86 1011.6
20260906010701 25 274 0.0 0.0 0.00 0.00 0.00 86 1011.6
20260906010158 25 274 0.0 0.0 0.00 0.00 0.00 85 1011.8
20260906005657 25 273 0.0 0.0 0.00 0.00 0.00 84 1011.5
20260906005157 25 272 0.0 0.0 0.00 0.00 0.00 84 1011.4
20260906004655 25 272 0.0 0.0 0.00 0.00 0.00 84 1011.6
20260906004150 26 272 0.0 0.0 0.00 0.00 0.00 85 1011.6
20260906003646 26 274 0.0 0.0 0.00 0.00 0.00 83 1011.6
20260906003141 26 275 0.0 0.0 0.00 0.00 0.00 81 1011.4
20260906002636 26 275 0.0 0.0 0.00 0.00 0.00 81 1011.2
20260906002131 26 275 0.0 0.0 0.00 0.00 0.00 82 1011.3
20260906001627 26 275 0.0 0.0 0.00 0.00 0.00 82 1011.0
20260906001126 26 275 0.0 0.0 0.00 0.00 0.00 82 1011.2
20260906000622 26 274 0.0 0.0 0.00 0.00 0.00 80 1011.4
20260906000117 26 275 0.0 0.0 0.00 0.00 0.00 81 1011.6
20260905235616 27 275 0.0 0.0 0.00 0.00 0.00 80 1011.9
20260905235111 27 275 0.0 0.0 0.00 0.00 0.00 80 1011.5
20260905234607 27 274 0.0 0.0 0.00 0.00 0.00 79 1011.5
20260905234102 27 274 0.0 0.0 0.00 0.00 0.00 77 1011.5
20260905233601 27 274 0.0 0.0 0.00 0.00 0.00 77 1011.4
20260905233056 27 274 0.0 0.0 0.00 0.00 0.00 76 1011.6
20260905232551 27 274 0.0 0.0 0.00 0.00 0.00 75 1011.6
20260905232047 28 275 0.0 0.0 0.00 0.00 0.00 75 1011.4
20260905231542 28 274 0.0 0.0 0.00 0.00 0.00 75 1011.2
20260905231038 28 274 0.0 0.0 0.00 0.00 0.00 74 1011.2
20260905230537 28 274 0.0 0.0 0.00 0.00 0.00 74 1011.2
20260905230036 28 274 0.0 0.0 0.00 0.00 0.00 74 1011.2
20260905225531 28 274 0.0 0.0 0.00 0.00 0.00 73 1011.2
20260905225026 28 268 0.0 0.0 0.00 0.00 0.00 73 1011.3
20260905224521 28 267 0.0 0.0 0.00 0.00 0.00 75 1011.1
20260905224020 28 268 0.0 0.0 0.00 0.00 0.00 73 1011.1
20260905223518 28 268 0.0 0.0 0.00 0.00 0.00 73 1011.4
20260905223014 28 268 0.0 0.0 0.00 0.00 0.00 73 1011.3
20260905222508 29 274 0.0 0.0 0.00 0.00 0.00 70 1011.6
20260905222003 29 274 0.0 0.0 0.00 0.00 0.00 69 1011.7
20260905221459 29 277 0.0 0.0 0.00 0.00 0.00 68 1011.6
20260905220955 29 272 0.0 0.0 0.00 0.00 0.00 70 1011.6
20260905220451 29 273 0.0 0.0 0.00 0.00 0.00 70 1011.9
20260905215949 29 270 0.0 0.0 0.00 0.00 0.00 68 1011.9
20260905215446 30 270 0.0 0.0 0.00 0.00 0.00 68 1011.7
20260905214942 30 273 0.0 0.0 0.00 0.00 0.00 67 1011.9
20260905214437 30 270 0.0 0.0 0.00 0.00 0.00 65 1011.8
20260905213937 30 273 0.0 0.0 0.00 0.00 0.00 65 1012.0
20260905213434 30 272 0.0 0.0 0.00 0.00 0.00 67 1011.9
20260905212929 30 265 0.0 0.0 0.00 0.00 0.00 67 1012.0
20260905212424 30 272 0.0 0.0 0.00 0.00 0.00 68 1012.2
20260905211922 30 272 0.0 0.0 0.00 0.00 0.00 67 1011.9
20260905211418 30 273 0.0 0.0 0.00 0.00 0.00 67 1012.0
20260905210914 30 273 0.0 0.0 0.00 0.00 0.00 70 1012.0
20260905210409 29 271 0.0 0.0 0.00 0.00 0.00 69 1011.8
20260905205908 29 268 0.0 0.0 0.00 0.00 0.00 68 1012.3
20260905205357 29 271 0.0 0.0 0.00 0.00 0.00 67 1012.2
20260905204856 30 285 0.0 0.0 0.00 0.00 0.00 68 1012.4
20260905204352 29 272 0.0 0.0 0.00 0.00 0.00 68 1012.3
20260905203845 29 269 0.0 0.0 0.00 0.00 0.00 71 1012.4
20260905203341 29 271 0.0 0.0 0.00 0.00 0.00 69 1012.2
20260905202837 29 256 0.0 0.0 0.00 0.00 0.00 69 1012.5
20260905202331 29 268 0.0 0.0 0.00 0.00 0.00 69 1012.5
20260905201828 30 259 0.0 0.0 0.00 0.00 0.00 66 1012.7
20260905201322 30 275 0.0 0.0 0.00 0.00 0.00 66 1012.5
20260905200822 30 265 0.0 0.0 0.00 0.00 0.00 66 1012.2
20260905200318 31 292 0.0 0.0 0.00 0.00 0.00 66 1012.2
20260905195816 32 268 0.0 0.0 0.00 0.00 0.00 63 1011.9
20260905195311 34 275 0.0 0.0 0.00 0.00 0.00 57 1012.3
20260905194808 35 272 0.0 0.0 0.00 0.00 0.00 53 1011.7
20260905194306 35 263 0.0 0.0 0.00 0.00 0.00 52 1011.3
20260905193801 35 274 0.0 0.0 0.00 0.00 0.00 53 1011.3
20260905193256 35 270 0.0 0.0 0.00 0.00 0.00 53 1011.8
20260905192751 34 271 0.0 0.0 0.00 0.00 0.00 56 1011.8
20260905192247 34 271 0.0 0.0 0.00 0.00 0.00 54 1011.9
20260905191747 35 272 0.0 0.0 0.00 0.00 0.00 54 1011.8
20260905191245 35 272 0.0 0.0 0.00 0.00 0.00 51 1011.7
20260905190743 35 271 0.0 0.0 0.00 0.00 0.00 50 1012.0
20260905190242 35 271 0.0 0.0 0.00 0.00 0.00 53 1011.8
20260905185736 34 270 0.0 0.0 0.00 0.00 0.00 57 1011.9
20260905185230 34 271 0.0 0.0 0.00 0.00 0.00 55 1012.2
20260905184724 34 270 0.0 0.0 0.00 0.00 0.00 54 1012.2
20260905184224 33 271 0.0 0.0 0.00 0.00 0.00 57 1012.0
20260905183717 33 273 0.0 0.0 0.00 0.00 0.00 59 1012.0
20260905183213 33 271 0.0 0.0 0.00 0.00 0.00 61 1011.8
20260905182706 33 271 0.0 0.0 0.00 0.00 0.00 59 1012.3
20260905182206 34 265 0.0 0.0 0.00 0.00 0.00 57 1012.3
20260905181701 35 281 0.0 0.0 0.00 0.00 0.00 55 1012.3
20260905181200 36 257 0.0 0.0 0.00 0.00 0.00 53 1012.7
20260905180655 37 275 0.0 0.0 0.00 0.00 0.00 50 1012.6
20260905180151 37 295 0.0 0.0 0.00 0.00 0.00 52 1012.6
20260905175649 37 290 0.0 0.0 0.00 0.00 0.00 52 1012.7
20260905175145 36 270 0.0 0.0 0.00 0.00 0.00 55 1012.4
20260905174641 37 297 0.0 0.0 0.00 0.00 0.00 51 1012.7
20260905174136 36 274 0.0 0.0 0.00 0.00 0.00 55 1012.8
20260905173632 36 276 0.0 0.0 0.00 0.00 0.00 55 1012.9
20260905173128 36 240 0.0 0.0 0.00 0.00 0.00 52 1013.0
20260905172626 36 240 0.0 0.0 0.00 0.00 0.00 52 1013.0
20260905172121 36 265 0.0 0.0 0.00 0.00 0.00 53 1013.1
20260905171618 37 278 0.0 0.0 0.00 0.00 0.00 50 1013.2
20260905171113 37 278 0.0 0.0 0.00 0.00 0.00 50 1013.2
20260905170605 36 274 0.0 0.0 0.00 0.00 0.00 54 1013.4
20260905170059 36 271 0.0 0.0 0.00 0.00 0.00 52 1013.3
20260905165554 35 278 0.0 0.0 0.00 0.00 0.00 52 1013.1
20260905165043 35 306 0.0 0.0 0.00 0.00 0.00 52 1013.5
20260905150354 34 266 0.0 0.0 0.00 0.00 0.00 63 1013.9
20260905145851 34 266 0.0 0.0 0.00 0.00 0.00 63 1013.9
20260905145346 34 270 0.0 0.0 0.00 0.00 0.00 62 1014.3
20260905144845 33 275 0.0 0.0 0.00 0.00 0.00 65 1014.4
20260905144341 33 272 0.0 0.0 0.00 0.00 0.00 67 1014.2
20260905143839 33 267 0.0 0.0 0.00 0.00 0.00 67 1014.6
20260905143334 33 274 0.0 0.0 0.00 0.00 0.00 65 1014.3
20260905142834 33 273 0.0 0.0 0.00 0.00 0.00 67 1014.4
20260905142332 32 275 0.0 0.0 0.00 0.00 0.00 68 1014.3
20260905141829 33 267 0.0 0.0 0.00 0.00 0.00 67 1014.3
20260905141324 32 274 0.0 0.0 0.00 0.00 0.00 72 1014.6
20260905140820 31 273 0.0 0.0 0.00 0.00 0.00 73 1014.2
20260905140319 31 261 0.0 0.0 0.00 0.00 0.00 74 1014.5
20260905135818 31 273 0.0 0.0 0.00 0.00 0.00 73 1014.5
20260905135314 31 269 0.0 0.0 0.00 0.00 0.00 74 1014.5
20260905134809 30 271 0.0 0.0 0.00 0.00 0.00 76 1014.5
20260905134302 30 270 0.0 0.0 0.00 0.00 0.00 78 1014.2
20260905133757 31 268 0.0 0.0 0.00 0.00 0.00 74 1014.5
20260905133253 31 275 0.0 0.0 0.00 0.00 0.00 74 1014.8
20260905132752 30 273 0.0 0.0 0.00 0.00 0.00 79 1014.8
20260905132247 28 273 0.0 0.0 0.00 0.00 0.00 84 1014.9
20260905131742 28 274 0.0 0.0 0.00 0.00 0.00 85 1014.9
20260905131237 27 275 0.0 0.0 0.00 0.00 0.00 88 1014.8
20260905130731 27 274 0.0 0.0 0.00 0.00 0.00 88 1014.9
20260905130231 26 270 0.0 0.0 0.00 0.00 0.00 89 1014.9
20260905125726 26 275 0.0 0.0 0.00 0.00 0.00 91 1015.0
20260905125221 26 273 0.0 0.0 0.00 0.00 0.00 93 1015.0
20260905124718 25 274 0.0 0.0 0.00 0.00 0.00 94 1014.8
20260905124213 25 273 0.0 0.0 0.00 0.00 0.00 97 1014.6
20260905123708 25 273 0.0 0.0 0.00 0.00 0.00 98 1014.7
20260905123205 24 273 0.0 0.0 0.00 0.00 0.00 99 1014.9
20260905122704 24 273 0.0 0.0 0.00 0.00 0.00 99 1014.7